This is the latest recevied weather packets stored in our database for station/object IZ6UQU-13. If no packets are shown the sender has not sent any weather packets the latest 10 day(s).
| Time | Temp. | Humidity | Pressure | Rain* | Wind** | Luminosity | Snow |
|---|---|---|---|---|---|---|---|
| 1777713906 | 15° C | 43% | 963.4 hPa | 0 mm | - | - | - |
| 1777713606 | 15° C | 44% | 963.5 hPa | 0 mm | - | - | - |
| 1777713306 | 15° C | 44% | 963.4 hPa | 0 mm | - | - | - |
| 1777713006 | 15° C | 46% | 963.6 hPa | 0 mm | - | - | - |
| 1777712706 | 15° C | 47% | 963.6 hPa | 0 mm | - | - | - |
| 1777712406 | 14.44° C | 48% | 963.6 hPa | 0 mm | - | - | - |
| 1777712106 | 14.44° C | 48% | 963.7 hPa | 0 mm | - | - | - |
| 1777711806 | 14.44° C | 48% | 963.7 hPa | 0 mm | - | - | - |
| 1777711506 | 14.44° C | 47% | 963.7 hPa | 0 mm | - | - | - |
| 1777711206 | 14.44° C | 48% | 963.8 hPa | 0 mm | - | - | - |
| 1777710906 | 13.89° C | 49% | 963.8 hPa | 0 mm | - | - | - |
| 1777710606 | 13.33° C | 50% | 963.8 hPa | 0 mm | - | - | - |
| 1777710306 | 12.78° C | 50% | 963.7 hPa | 0 mm | - | - | - |
| 1777710006 | 12.78° C | 50% | 963.7 hPa | 0 mm | - | - | - |
| 1777709706 | 12.78° C | 50% | 963.7 hPa | 0 mm | - | - | - |
| 1777709406 | 12.22° C | 51% | 963.8 hPa | 0 mm | - | - | - |
| 1777709106 | 11.67° C | 55% | 963.8 hPa | 0 mm | - | - | - |
| 1777708807 | 11.67° C | 54% | 963.9 hPa | 0 mm | - | - | - |
| 1777708506 | 11.67° C | 57% | 963.9 hPa | 0 mm | - | - | - |
| 1777708206 | 11.11° C | 57% | 964 hPa | 0 mm | - | - | - |
| 1777707906 | 11.11° C | 56% | 964.1 hPa | 0 mm | - | - | - |
| 1777707606 | 11.11° C | 56% | 964.1 hPa | 0 mm | - | - | - |
| 1777707306 | 11.11° C | 58% | 964.1 hPa | 0 mm | - | - | - |
| 1777707006 | 11.11° C | 57% | 964 hPa | 0 mm | - | - | - |
| 1777706706 | 11.11° C | 57% | 964.1 hPa | 0 mm | - | - | - |
* Rain latest hour (hover to see other rain measurements)
** Current wind speed in m/s (hover to see current wind gust speed)